Location: Campillo
(40.8621°N, 4.2488°W)
Time: 12:12:17
(UTC+00:00)

SJ 16-02 - Pass Details

Date: 11 May 2021
Orbit: 605 x 616 km, 75.0° (Epoch: 14 June)

Event Time Altitude Azimuth Distance (km) Brightness Sun altitude
Exits shadow 22:56:26 10° 261° (W) 1,992 4.1 -28.4°
Reaches altitude 10° 22:56:29 10° 261° (W) 1,977 4.0 -28.4°
Maximum altitude 22:59:17 16° 301° (WNW) 1,607 4.0 -28.5°
Drops below altitude 10° 23:02:05 10° 340° (NNW) 1,986 4.9 -28.7°
Sets 23:05:07 0° 2° (N) 2,896 5.8 -28.9°
